[[{"header":{"parameterUnit":"m.s-1","parameterCategory":1,"la1":30.2991,"la2":30.254,"lo1":-89.0895,"lo2":-89.0444,"dy":0.0017,"dx":0.0017,"nx":28,"ny":28,"refTime":"2025-03-14T03:00:00:Z","depth":0,"parameterNumber":2,"parameterNumberName":"U-component_of_WINDS"},"data":[0,0,0,0,0,0,0,0,0,0,0,0,0,0,0,0,0,0,0,0,0,0,0,0,0,0,0,0,0,0,0,0,0,0,0,0,0,0,0,0,0,0,0,0,0,0,0,0,0,0,0,0,0,0,0,0,0,0,-1.63,-1.63,0,-1.6307,-1.6307,-1.6307,-1.6268,-1.6267,-1.6266,-1.6265,-1.6271,-1.6272,-1.6274,0,0,0,0,0,0,0,0,0,0,0,0,0,-1.6253,-1.6254,-1.63,-1.63,-1.63,-1.6307,-1.6307,-1.6307,-1.6269,-1.6267,-1.6266,-1.6265,-1.6271,-1.6272,-1.6274,0,0,0,0,0,0,0,0,0,0,0,0,0,-1.6268,-1.6254,-1.63,-1.6282,-1.628,-1.6307,-1.6307,-1.6307,-1.6269,-1.6267,-1.6266,-1.6264,-1.627,-1.6272,-1.6274,-1.6318,0,0,-1.6279,-1.628,0,0,0,0,0,0,0,0,-1.6267,-1.627,-1.6284,-1.6283,-1.6281,-1.6285,-1.6292,-1.631,-1.6269,-1.6273,-1.6265,-1.6263,-1.6277,-1.6278,-1.6283,-1.6318,-1.6318,-1.628,-1.6281,-1.6281,-1.6282,0,0,0,0,0,0,0,-1.6266,-1.6269,-1.6302,-1.6285,-1.6283,-1.6273,-1.6273,-1.6296,-1.6284,-1.6273,-1.627,-1.6271,-1.6276,-1.6282,-1.6283,-1.6318,-1.628,-1.6281,-1.6282,-1.6283,-1.6389,-1.639,0,0,0,0,0,0,-1.6268,-1.6269,-1.6302,-1.6303,-1.627,-1.6275,-1.6276,-1.6285,-1.6284,-1.6282,-1.6273,-1.6269,-1.6279,-1.6281,-1.6283,-1.6333,-1.6281,-1.6283,-1.6284,-1.6387,-1.6389,-1.6391,0,0,0,0,0,0,-1.6267,-1.6271,-1.6302,-1.6285,-1.6288,-1.6278,-1.6289,-1.6286,-1.6292,-1.6284,-1.6282,-1.628,-1.6278,-1.6281,-1.6309,-1.6333,-1.6284,-1.6285,-1.6385,-1.6387,-1.639,-1.6434,0,0,0,0,0,0,-1.6266,-1.6271,-1.6288,-1.6286,-1.6289,-1.6328,-1.6291,-1.6288,-1.6295,-1.6291,-1.6291,-1.6289,-1.6277,-1.6307,-1.6311,-1.6334,-1.6287,-1.6383,-1.6386,-1.6389,-1.643,-1.6438,-1.6444,0,0,0,0,0,-1.6264,-1.63,-1.6289,-1.6293,-1.631,-1.633,-1.6332,-1.6317,-1.6297,-1.6313,-1.6308,-1.6289,-1.633,-1.631,-1.6314,-1.6339,-1.6381,-1.6385,-1.6389,-1.6427,-1.6436,-1.6444,0,0,0,0,0,0,-1.6305,-1.6299,-1.6287,-1.6323,-1.6327,-1.6323,-1.6343,-1.6328,-1.6338,-1.6333,-1.6315,-1.6315,-1.6347,-1.6346,-1.6324,-1.638,-1.6352,-1.6357,-1.6379,-1.6388,-1.6395,-1.6393,-1.6288,0,0,0,0,0,-1.6318,-1.6335,-1.6329,-1.6362,-1.6364,-1.6354,-1.6362,-1.6351,-1.6354,-1.6356,-1.6353,-1.6356,-1.637,-1.6379,-1.6392,-1.6431,-1.6429,-1.6449,-1.6456,-1.6462,-1.6466,-1.6485,-1.6494,-1.6404,-1.6404,-1.6404,0,0,-1.6345,-1.6344,-1.6356,-1.637,-1.6372,-1.6389,-1.6355,-1.6375,-1.6388,-1.6359,-1.6385,-1.6383,-1.6386,-1.642,-1.6435,-1.642,-1.6491,-1.6467,-1.6472,-1.6472,-1.649,-1.6499,-1.6506,-1.6406,-1.6406,-1.6405,0,0,-1.6403,-1.6405,-1.6432,-1.6434,-1.6438,-1.643,-1.6437,-1.6436,-1.6433,-1.646,-1.6438,-1.6452,-1.6477,-1.6479,-1.6484,-1.6544,-1.6525,-1.6548,-1.6583,-1.6603,-1.661,-1.6616,-1.6635,-1.6643,-1.6553,-1.6553,-1.6553,0,-1.6436,-1.6462,-1.6447,-1.6468,-1.6475,-1.645,-1.6476,-1.6479,-1.6487,-1.6491,-1.6475,-1.6504,-1.6505,-1.6538,-1.6553,-1.6558,-1.6564,-1.6547,-1.661,-1.6616,-1.6621,-1.664,-1.6647,-1.6555,-1.6555,-1.6555,-1.6555,0,-1.6502,-1.652,-1.6541,-1.6548,-1.6557,-1.6581,-1.657,-1.658,-1.6569,-1.6563,-1.659,-1.659,-1.6601,-1.6609,-1.6598,-1.664,-1.6631,-1.6613,-1.6583,-1.6633,-1.665,-1.6657,-1.6559,-1.6558,-1.6557,-1.6557,0,0,-1.6584,-1.6584,-1.6591,-1.6594,-1.6596,-1.6609,-1.6632,-1.6643,-1.6652,-1.6659,-1.6676,-1.6697,-1.668,-1.6686,-1.6675,-1.6692,-1.6737,-1.6671,-1.6671,-1.6682,-1.6783,-1.6795,-1.6803,-1.6726,-1.6728,-1.6729,-1.6782,0,-1.664,-1.6678,-1.6665,-1.6704,-1.6719,-1.6696,-1.6716,-1.6719,-1.6715,-1.6727,-1.6723,-1.6737,-1.6715,-1.6717,-1.6733,-1.6728,-1.6757,-1.6725,-1.6741,-1.6742,-1.6739,-1.6812,-1.6825,-1.6875,-1.6788,-1.679,-1.679,0,-1.6709,-1.6717,-1.6757,-1.6756,-1.6762,-1.678,-1.6789,-1.6802,-1.6805,-1.68,-1.6807,-1.6792,-1.6814,-1.6786,-1.6815,-1.6793,-1.6799,-1.6798,-1.68,-1.6799,-1.6768,-1.6812,-1.6891,-1.6898,-1.6801,-1.68,-1.6799,0,-1.6762,-1.6784,-1.6811,-1.6814,-1.6814,-1.6826,-1.6827,-1.6829,-1.6836,-1.6844,-1.6848,-1.6859,-1.6864,-1.6873,-1.6861,-1.6842,-1.6891,-1.6863,-1.6887,-1.6887,-1.6896,-1.6896,-1.6976,-1.6904,-1.6904,-1.6904,-1.6904,0,-1.6824,-1.6849,-1.6835,-1.6851,-1.6878,-1.6864,-1.6891,-1.6889,-1.689,-1.6905,-1.6887,-1.6901,-1.6886,-1.6899,-1.689,-1.6915,-1.6918,-1.6914,-1.6911,-1.6914,-1.6915,-1.6917,-1.6912,-1.6906,-1.6906,-1.6905,-1.6905,0,-1.6888,-1.6879,-1.6906,-1.6904,-1.6904,-1.6924,-1.6922,-1.6936,-1.6931,-1.695,-1.6953,-1.6945,-1.6959,-1.6949,-1.6964,-1.6958,-1.6989,-1.6982,-1.6988,-1.6985,-1.7009,-1.7006,-1.7092,-1.7101,-1.7026,-1.7026,-1.7027,0,-1.6927,-1.6945,-1.6945,-1.6953,-1.6955,-1.6969,-1.6977,-1.6964,-1.6972,-1.6977,-1.6991,-1.7003,-1.7012,-1.7036,-1.7031,-1.7042,-1.7034,-1.7063,-1.7035,-1.7038,-1.7032,-1.703,-1.7031,-1.7068,-1.7069,-1.707,-1.707,0,-1.6996,-1.6991,-1.7002,-1.7012,-1.7021,-1.7028,-1.7034,-1.7042,-1.7029,-1.7039,-1.7053,-1.7061,-1.7075,-1.7087,-1.7096,-1.7096,-1.7081,-1.708,-1.7085,-1.7088,-1.7089,-1.7087,-1.7001,-1.7077,-1.7076,-1.7076,-1.7075,-1.7075,-1.7047,-1.7062,-1.7064,-1.7077,-1.708,-1.7085,-1.7098,-1.7095,-1.7106,-1.7117,-1.7109,-1.7126,-1.7128,-1.7138,-1.714,-1.7153,-1.7141,-1.715,-1.7151,-1.7153,-1.7156,-1.7089,-1.7155,-1.7154,-1.7154,-1.7154,-1.7154,0,-1.7113,-1.7114,-1.7126,-1.7134,-1.7144,-1.713,-1.7135,-1.7144,-1.7159,-1.7163,-1.7172,-1.7188,-1.72,-1.7196,-1.7207,-1.7217,-1.7211,-1.722,-1.7218,-1.7218,-1.7167,-1.716,-1.7226,-1.7226,-1.7226,-1.7226,-1.7226,-1.7226,-1.7149,-1.7173,-1.7168,-1.7193,-1.7193,-1.7209,-1.7213,-1.7218,-1.7221,-1.7239,-1.7249,-1.7247,-1.7247,-1.7258,-1.7268,-1.7266,-1.727,-1.7282,-1.7278,-1.7229,-1.7222,-1.7215,-1.7208,-1.7284,-1.7284,-1.7328,-1.7329,-1.7329]},{"header":{"parameterUnit":"m.s-1","parameterCategory":1,"la1":30.2991,"la2":30.254,"lo1":-89.0895,"lo2":-89.0444,"dy":0.0017,"dx":0.0017,"nx":28,"ny":28,"refTime":"2025-03-14T03:00:00:Z","depth":0,"parameterNumber":3,"parameterNumberName":"V-component_of_WINDS"},"data":[0,0,0,0,0,0,0,0,0,0,0,0,0,0,0,0,0,0,0,0,0,0,0,0,0,0,0,0,0,0,0,0,0,0,0,0,0,0,0,0,0,0,0,0,0,0,0,0,0,0,0,0,0,0,0,0,0,0,4.4679,4.468,0,4.4735,4.4736,4.4736,4.4762,4.4762,4.4762,4.4762,4.4814,4.4815,4.4816,0,0,0,0,0,0,0,0,0,0,0,0,0,4.459,4.4592,4.4679,4.468,4.4681,4.4735,4.4736,4.4737,4.4762,4.4762,4.4762,4.4762,4.4813,4.4815,4.4816,0,0,0,0,0,0,0,0,0,0,0,0,0,4.4636,4.4592,4.4679,4.47,4.4703,4.4735,4.4736,4.4737,4.4762,4.4762,4.4762,4.4762,4.4813,4.4815,4.4817,4.4831,0,0,4.4823,4.4824,0,0,0,0,0,0,0,0,4.4633,4.4639,4.4696,4.4699,4.4702,4.4742,4.4724,4.4768,4.4762,4.4739,4.4762,4.4762,4.4789,4.4793,4.4804,4.4833,4.4836,4.4823,4.4825,4.4826,4.4826,0,0,0,0,0,0,0,4.463,4.4637,4.4701,4.4697,4.47,4.4705,4.4712,4.4732,4.4764,4.4741,4.4743,4.475,4.4791,4.4802,4.4805,4.4836,4.4823,4.4825,4.4827,4.4827,4.4882,4.4882,0,0,0,0,0,0,4.4624,4.4634,4.47,4.4703,4.4667,4.4707,4.4714,4.4729,4.4764,4.4769,4.475,4.4751,4.4798,4.4803,4.4807,4.4828,4.4826,4.4828,4.4829,4.4882,4.4882,4.4882,0,0,0,0,0,0,4.4622,4.463,4.4697,4.4669,4.4678,4.4709,4.4725,4.473,4.4741,4.477,4.4775,4.4755,4.4798,4.4804,4.4826,4.483,4.4829,4.483,4.4881,4.4882,4.4882,4.4867,0,0,0,0,0,0,4.4619,4.4629,4.4635,4.4669,4.468,4.4716,4.4725,4.4731,4.4745,4.4747,4.4777,4.4782,4.4799,4.4822,4.4828,4.4832,4.4832,4.4881,4.4882,4.4882,4.4868,4.4867,4.4867,0,0,0,0,0,4.4616,4.4628,4.4636,4.4643,4.4689,4.4716,4.4722,4.4743,4.4745,4.4752,4.4771,4.4781,4.4828,4.4824,4.4831,4.4836,4.4881,4.4881,4.4882,4.4868,4.4867,4.4867,0,0,0,0,0,0,4.4591,4.4632,4.4642,4.4665,4.4687,4.4721,4.4729,4.4741,4.4762,4.4762,4.4785,4.4792,4.4812,4.4826,4.4821,4.4852,4.4855,4.4857,4.4843,4.4842,4.4842,4.4838,4.4834,0,0,0,0,0,4.4589,4.461,4.4643,4.466,4.4671,4.4698,4.4711,4.4725,4.4749,4.4758,4.4778,4.4799,4.4819,4.4831,4.4851,4.487,4.4877,4.4876,4.4876,4.4875,4.4877,4.4889,4.4889,4.4883,4.4883,4.4883,0,0,4.4583,4.4608,4.4619,4.4656,4.4675,4.4695,4.4706,4.4726,4.4741,4.476,4.4783,4.4798,4.4823,4.4844,4.4854,4.4856,4.488,4.4876,4.4875,4.4877,4.4889,4.489,4.489,4.4884,4.4884,4.4884,0,0,4.4584,4.4605,4.4622,4.4642,4.4671,4.4689,4.4693,4.4725,4.4737,4.4761,4.4776,4.4793,4.4826,4.4844,4.4857,4.4865,4.4876,4.4871,4.4868,4.488,4.4881,4.4881,4.4885,4.4886,4.4872,4.4872,4.4872,0,4.4573,4.4605,4.4629,4.4649,4.4665,4.4686,4.4703,4.472,4.4753,4.4763,4.4765,4.4809,4.4827,4.4853,4.4855,4.4864,4.487,4.4868,4.4879,4.488,4.488,4.4885,4.4886,4.4871,4.4871,4.4871,4.4871,0,4.4591,4.4613,4.4623,4.4658,4.4674,4.4692,4.4718,4.4732,4.4745,4.4762,4.4786,4.4808,4.4834,4.484,4.4852,4.4868,4.4869,4.4875,4.4878,4.488,4.4884,4.4886,4.487,4.4871,4.4871,4.4871,0,0,4.4577,4.4626,4.4629,4.4646,4.4681,4.4697,4.4716,4.4743,4.4755,4.4777,4.4794,4.4822,4.4829,4.4843,4.4857,4.4867,4.4874,4.4872,4.4873,4.4873,4.4894,4.489,4.4892,4.4881,4.4881,4.4882,4.4892,0,4.4583,4.4621,4.4643,4.4671,4.4692,4.4713,4.4729,4.4752,4.4769,4.4788,4.4805,4.4826,4.4832,4.4841,4.4852,4.4871,4.4879,4.487,4.4896,4.4897,4.4891,4.4894,4.489,4.4899,4.4894,4.4894,4.4895,0,4.4595,4.462,4.4651,4.4685,4.4695,4.4709,4.4737,4.4755,4.478,4.4792,4.4809,4.4824,4.4844,4.4846,4.4874,4.4868,4.4879,4.489,4.4891,4.4895,4.4896,4.4899,4.4902,4.4904,4.4897,4.4897,4.4897,0,4.4584,4.4624,4.4649,4.4662,4.4702,4.4712,4.4729,4.4755,4.477,4.4792,4.4803,4.4826,4.484,4.4857,4.4878,4.4877,4.4904,4.4907,4.4914,4.4913,4.4919,4.4919,4.4926,4.4925,4.4925,4.4925,4.4925,0,4.4589,4.4607,4.4645,4.4659,4.4681,4.4706,4.4725,4.4743,4.4766,4.4784,4.4802,4.4818,4.4843,4.4862,4.4878,4.4899,4.4904,4.4914,4.4918,4.4913,4.4912,4.4922,4.4922,4.4925,4.4925,4.4925,4.4925,0,4.458,4.4605,4.4634,4.467,4.4679,4.4693,4.4723,4.4738,4.4756,4.4779,4.4786,4.4814,4.4837,4.4859,4.4889,4.49,4.4922,4.4926,4.4914,4.4916,4.4922,4.4922,4.4936,4.494,4.4936,4.4936,4.4936,0,4.4582,4.4597,4.4636,4.465,4.4667,4.469,4.4706,4.4731,4.4747,4.4778,4.4789,4.4814,4.4836,4.4872,4.4894,4.4918,4.4924,4.4927,4.4927,4.4922,4.4925,4.4925,4.4927,4.4927,4.4927,4.4927,4.4927,0,4.4583,4.4596,4.462,4.4649,4.4668,4.4691,4.4715,4.4725,4.4754,4.4771,4.4797,4.4814,4.4846,4.4871,4.4898,4.4913,4.4925,4.4927,4.493,4.4925,4.4918,4.4923,4.4914,4.4926,4.4926,4.4927,4.4927,4.4927,4.458,4.4595,4.4626,4.4652,4.4673,4.4695,4.4712,4.4733,4.4755,4.4785,4.4798,4.4824,4.4849,4.4887,4.4902,4.4922,4.4925,4.4928,4.493,4.4931,4.493,4.4914,4.4927,4.4927,4.4927,4.4927,4.4927,0,4.4584,4.4605,4.4629,4.4663,4.4684,4.4695,4.4722,4.4738,4.4761,4.4785,4.4807,4.4837,4.4861,4.4886,4.4911,4.4922,4.4929,4.4928,4.4928,4.4932,4.4926,4.4921,4.4923,4.4923,4.4923,4.4923,4.4923,4.4923,4.4588,4.4615,4.4631,4.4668,4.4688,4.4716,4.473,4.475,4.477,4.4803,4.4824,4.4841,4.4865,4.4893,4.4916,4.4922,4.4931,4.493,4.4938,4.4932,4.4932,4.4932,4.4928,4.4931,4.4931,4.4942,4.4942,4.4942]}]]